• In Deutschland
  • Länderverzeichnis
  • Für 7 Tage
  • Wassertemperatur
  • Satellitenkarten
  • Wetterkarte
  • Widgets
  • user-avatar
    Anmelden

    Stündliche Wetter Tschachansur

    Heute, 24 November, Freitag

    Zeit Temperatur Niederschläge Wind Luftdruck Luftfeuchtigkeit
    00:00 +19°C° 0 mm 2 m/S 716 mmHg 10%
    01:00 +19°C° 0 mm 2 m/S 716 mmHg 10%
    02:00 +19°C° 0 mm 2 m/S 716 mmHg 11%
    03:00 +19°C° 0 mm 2 m/S 716 mmHg 11%
    04:00 +19°C° 0 mm 2 m/S 716 mmHg 12%
    05:00 +19°C° 0 mm 2 m/S 717 mmHg 12%
    06:00 +19°C° 0 mm 3 m/S 717 mmHg 12%
    07:00 +19°C° 0 mm 3 m/S 718 mmHg 11%
    08:00 +21°C° 0 mm 3 m/S 718 mmHg 10%
    09:00 +22°C° 0 mm 3 m/S 718 mmHg 10%
    10:00 +24°C° 0 mm 3 m/S 719 mmHg 10%
    11:00 +25°C° 0 mm 2 m/S 719 mmHg 11%
    12:00 +26°C° 0 mm 2 m/S 718 mmHg 12%
    13:00 +27°C° 0 mm 2 m/S 718 mmHg 13%
    14:00 +26°C° 0 mm 2 m/S 718 mmHg 14%
    15:00 +26°C° 0 mm 1 m/S 718 mmHg 16%
    16:00 +26°C° 0 mm 1 m/S 717 mmHg 17%
    17:00 +25°C° 0 mm 2 m/S 717 mmHg 18%
    18:00 +24°C° 0 mm 2 m/S 717 mmHg 18%
    19:00 +22°C° 0 mm 3 m/S 718 mmHg 19%
    20:00 +22°C° 0 mm 3 m/S 717 mmHg 19%
    21:00 +21°C° 0 mm 4 m/S 717 mmHg 19%
    22:00 +20°C° 0 mm 4 m/S 717 mmHg 19%
    23:00 +20°C° 0 mm 4 m/S 717 mmHg 19%

    Morgen, 25 November, Samstag

    Zeit Temperatur Niederschläge Wind Luftdruck Luftfeuchtigkeit
    00:00 +20°C° 0 mm 4 m/S 717 mmHg 20%
    01:00 +19°C° 0 mm 3 m/S 717 mmHg 21%
    02:00 +19°C° 0 mm 3 m/S 717 mmHg 24%
    03:00 +18°C° 0 mm 3 m/S 717 mmHg 28%
    04:00 +18°C° 0 mm 3 m/S 717 mmHg 31%
    05:00 +18°C° 0 mm 2 m/S 717 mmHg 32%
    06:00 +17°C° 0 mm 2 m/S 718 mmHg 33%
    07:00 +17°C° 0 mm 2 m/S 718 mmHg 35%
    08:00 +19°C° 0 mm 3 m/S 719 mmHg 31%
    09:00 +21°C° 0 mm 3 m/S 720 mmHg 26%
    10:00 +22°C° 0 mm 3 m/S 721 mmHg 22%
    11:00 +23°C° 0 mm 4 m/S 721 mmHg 21%
    12:00 +25°C° 0 mm 5 m/S 721 mmHg 20%
    13:00 +26°C° 0 mm 7 m/S 720 mmHg 18%
    14:00 +24°C° 0 mm 6 m/S 721 mmHg 18%
    15:00 +24°C° 0 mm 6 m/S 721 mmHg 18%
    16:00 +25°C° 0 mm 5 m/S 721 mmHg 18%
    17:00 +22°C° 0 mm 5 m/S 721 mmHg 20%
    18:00 +21°C° 0 mm 4 m/S 722 mmHg 22%
    19:00 +20°C° 0 mm 4 m/S 722 mmHg 23%
    20:00 +19°C° 0 mm 4 m/S 722 mmHg 23%
    21:00 +18°C° 0 mm 4 m/S 723 mmHg 24%
    22:00 +18°C° 0 mm 4 m/S 723 mmHg 24%
    23:00 +17°C° 0 mm 4 m/S 723 mmHg 23%

    übermorgen, 26 November, Sonntag

    Zeit Temperatur Niederschläge Wind Luftdruck Luftfeuchtigkeit
    00:00 +15°C° 0 mm 4 m/S 723 mmHg 23%
    01:00 +15°C° 0 mm 4 m/S 723 mmHg 22%
    02:00 +14°C° 0 mm 4 m/S 723 mmHg 22%
    03:00 +14°C° 0 mm 4 m/S 723 mmHg 21%
    04:00 +13°C° 0 mm 4 m/S 723 mmHg 20%
    05:00 +13°C° 0 mm 4 m/S 724 mmHg 19%
    06:00 +13°C° 0 mm 4 m/S 724 mmHg 19%
    07:00 +12°C° 0 mm 4 m/S 725 mmHg 18%
    08:00 +14°C° 0 mm 4 m/S 725 mmHg 16%
    09:00 +17°C° 0 mm 4 m/S 726 mmHg 14%
    10:00 +19°C° 0 mm 5 m/S 726 mmHg 11%
    11:00 +20°C° 0 mm 5 m/S 726 mmHg 10%
    12:00 +21°C° 0 mm 5 m/S 725 mmHg 9%
    13:00 +22°C° 0 mm 5 m/S 725 mmHg 8%
    14:00 +22°C° 0 mm 4 m/S 724 mmHg 8%
    15:00 +22°C° 0 mm 4 m/S 724 mmHg 9%
    16:00 +22°C° 0 mm 4 m/S 724 mmHg 9%
    17:00 +20°C° 0 mm 4 m/S 724 mmHg 11%
    18:00 +19°C° 0 mm 4 m/S 724 mmHg 12%
    19:00 +18°C° 0 mm 4 m/S 724 mmHg 14%
    20:00 +17°C° 0 mm 4 m/S 724 mmHg 16%
    21:00 +15°C° 0 mm 4 m/S 724 mmHg 18%
    22:00 +15°C° 0 mm 4 m/S 724 mmHg 19%
    23:00 +14°C° 0 mm 4 m/S 724 mmHg 21%

    27 November, Montag

    Zeit Temperatur Niederschläge Wind Luftdruck Luftfeuchtigkeit
    00:00 +13°C° 0 mm 4 m/S 724 mmHg 22%
    01:00 +13°C° 0 mm 3 m/S 723 mmHg 24%
    02:00 +12°C° 0 mm 3 m/S 723 mmHg 25%
    03:00 +12°C° 0 mm 3 m/S 723 mmHg 26%
    04:00 +11°C° 0 mm 3 m/S 723 mmHg 27%
    05:00 +11°C° 0 mm 3 m/S 723 mmHg 27%
    06:00 +12°C° 0 mm 2 m/S 723 mmHg 28%
    07:00 +12°C° 0 mm 2 m/S 723 mmHg 28%
    08:00 +14°C° 0 mm 2 m/S 723 mmHg 25%
    09:00 +15°C° 0 mm 2 m/S 724 mmHg 22%
    10:00 +17°C° 0 mm 2 m/S 724 mmHg 19%
    11:00 +18°C° 0 mm 2 m/S 723 mmHg 17%
    12:00 +19°C° 0 mm 2 m/S 723 mmHg 15%
    13:00 +20°C° 0 mm 2 m/S 722 mmHg 14%
    14:00 +22°C° 0 mm 1 m/S 722 mmHg 14%
    15:00 +22°C° 0 mm 1 m/S 721 mmHg 13%
    16:00 +22°C° 0 mm 1 m/S 721 mmHg 13%
    17:00 +20°C° 0 mm 1 m/S 721 mmHg 15%
    18:00 +19°C° 0 mm 1 m/S 721 mmHg 17%
    19:00 +16°C° 0 mm 1 m/S 721 mmHg 18%
    20:00 +16°C° 0 mm 1 m/S 721 mmHg 19%
    21:00 +15°C° 0 mm 1 m/S 721 mmHg 19%
    22:00 +15°C° 0 mm 1 m/S 721 mmHg 20%
    23:00 +15°C° 0 mm 1 m/S 720 mmHg 21%

    28 November, Dienstag

    Zeit Temperatur Niederschläge Wind Luftdruck Luftfeuchtigkeit
    00:00 +14°C° 0 mm 1 m/S 720 mmHg 21%
    01:00 +14°C° 0 mm 1 m/S 719 mmHg 22%
    02:00 +14°C° 0 mm 1 m/S 719 mmHg 22%
    03:00 +13°C° 0 mm 1 m/S 719 mmHg 23%
    04:00 +13°C° 0 mm 1 m/S 718 mmHg 23%
    05:00 +12°C° 0 mm 0 m/S 719 mmHg 22%
    06:00 +12°C° 0 mm 0 m/S 719 mmHg 22%
    07:00 +12°C° 0 mm 0 m/S 719 mmHg 22%
    08:00 +14°C° 0 mm 0 m/S 720 mmHg 19%
    09:00 +18°C° 0 mm 1 m/S 720 mmHg 17%
    10:00 +21°C° 0 mm 1 m/S 721 mmHg 14%
    11:00 +21°C° 0 mm 1 m/S 720 mmHg 13%
    12:00 +21°C° 0 mm 2 m/S 720 mmHg 12%
    13:00 +23°C° 0 mm 2 m/S 719 mmHg 11%
    14:00 +23°C° 0 mm 2 m/S 719 mmHg 12%
    15:00 +23°C° 0 mm 2 m/S 719 mmHg 12%
    16:00 +23°C° 0 mm 2 m/S 719 mmHg 12%
    17:00 +21°C° 0 mm 2 m/S 719 mmHg 13%
    18:00 +19°C° 0 mm 2 m/S 719 mmHg 14%
    19:00 +18°C° 0 mm 2 m/S 720 mmHg 15%
    20:00 +18°C° 0 mm 2 m/S 720 mmHg 16%
    21:00 +17°C° 0 mm 2 m/S 720 mmHg 17%
    22:00 +17°C° 0 mm 3 m/S 720 mmHg 19%
    23:00 +16°C° 0 mm 3 m/S 720 mmHg 22%

    29 November, Mittwoch

    Zeit Temperatur Niederschläge Wind Luftdruck Luftfeuchtigkeit
    00:00 +16°C° 0 mm 3 m/S 720 mmHg 25%
    01:00 +14°C° 0 mm 3 m/S 720 mmHg 29%
    02:00 +14°C° 0 mm 3 m/S 720 mmHg 32%
    03:00 +13°C° 0 mm 3 m/S 720 mmHg 34%
    04:00 +13°C° 0 mm 3 m/S 720 mmHg 37%
    05:00 +13°C° 0 mm 3 m/S 721 mmHg 37%
    06:00 +13°C° 0 mm 3 m/S 721 mmHg 37%
    07:00 +12°C° 0 mm 3 m/S 722 mmHg 37%
    08:00 +14°C° 0 mm 3 m/S 722 mmHg 33%
    09:00 +17°C° 0 mm 4 m/S 723 mmHg 28%
    10:00 +19°C° 0 mm 4 m/S 723 mmHg 24%
    11:00 +20°C° 0 mm 4 m/S 723 mmHg 22%
    12:00 +21°C° 0 mm 4 m/S 722 mmHg 20%
    13:00 +23°C° 0 mm 4 m/S 722 mmHg 18%
    14:00 +23°C° 0 mm 4 m/S 722 mmHg 18%
    15:00 +24°C° 0 mm 3 m/S 722 mmHg 18%
    16:00 +24°C° 0 mm 3 m/S 721 mmHg 17%
    17:00 +21°C° 0 mm 3 m/S 722 mmHg 19%
    18:00 +20°C° 0 mm 3 m/S 722 mmHg 20%
    19:00 +19°C° 0 mm 3 m/S 722 mmHg 22%
    20:00 +18°C° 0 mm 3 m/S 722 mmHg 23%
    21:00 +17°C° 0 mm 4 m/S 722 mmHg 24%
    22:00 +17°C° 0 mm 4 m/S 722 mmHg 25%
    23:00 +15°C° 0 mm 4 m/S 722 mmHg 25%
    Mehr zeigen